Location: Rocktram
(38.2574°N, 122.2805°W)
Time: 21:23:39
(UTC+00:00)

Meteor 1-21 Rocket - Pass Details

Date: 30 March 2020
Orbit: 833 x 907 km, 81.2° (Epoch: 29 May)

Event Time Altitude Azimuth Distance (km) Brightness Sun altitude
Rises 04:34:17 0° 350° (N) 3,405 7.9 -24.1°
Reaches altitude 10° 04:36:43 10° 351° (N) 2,460 7.0 -24.6°
Maximum altitude 04:42:17 89° 262° (W) 839 4.1 -25.5°
Enters shadow 04:43:20 61° 174° (S) 943 4.2 -25.7°
